Time,TemperatureF,DewpointF,PressureIn,WindDirection,WindDirectionDegrees,WindSpeedMPH,WindSpeedGustMPH,Humidity,HourlyPrecipIn,Conditions,Clouds,dailyrainin,SoftwareType,DateUTC
2013-03-21 00:00:00,38.1,32.0,29.26,NNW,342,4.5,6.9,30,0.00,,,-99.99,wx200d/1.3,2013-03-21 04:00:00,
2013-03-21 00:05:00,37.9,32.0,29.26,NNE,19,4.9,6.9,30,0.00,,,-99.99,wx200d/1.3,2013-03-21 04:05:00,
2013-03-21 00:10:00,37.8,32.0,29.26,North,1,3.1,6.9,30,0.00,,,-99.99,wx200d/1.3,2013-03-21 04:10:00,
2013-03-21 00:15:00,37.8,32.0,29.26,North,356,4.9,7.4,31,0.00,,,-99.99,wx200d/1.3,2013-03-21 04:15:00,
2013-03-21 00:20:00,37.6,32.0,29.26,North,356,4.0,6.9,31,0.00,,,-99.99,wx200d/1.3,2013-03-21 04:20:00,
2013-03-21 00:25:00,37.6,32.0,29.26,North,351,6.7,8.7,32,0.00,,,-99.99,wx200d/1.3,2013-03-21 04:25:00,
2013-03-21 00:30:00,37.6,32.0,29.26,NNW,332,6.9,11.2,31,0.00,,,-99.99,wx200d/1.3,2013-03-21 04:30:00,
2013-03-21 00:35:00,37.6,32.0,29.26,NNW,336,8.7,11.6,31,0.00,,,-99.99,wx200d/1.3,2013-03-21 04:35:00,
2013-03-21 00:40:00,37.6,32.0,29.26,NNW,328,7.8,13.0,31,0.00,,,-99.99,wx200d/1.3,2013-03-21 04:40:00,
2013-03-21 00:46:00,37.6,32.0,29.26,NNW,329,9.6,15.2,33,0.00,,,-99.99,wx200d/1.3,2013-03-21 04:46:00,
2013-03-21 00:51:00,36.7,32.0,29.26,NW,324,10.1,13.9,39,0.00,,,-99.99,wx200d/1.3,2013-03-21 04:51:00,
2013-03-21 00:56:00,36.1,32.0,29.26,NNW,328,7.4,11.0,41,0.00,,,-99.99,wx200d/1.3,2013-03-21 04:56:00,
2013-03-21 01:01:00,35.6,32.0,29.26,NNW,346,7.8,11.2,42,0.00,,,-99.99,wx200d/1.3,2013-03-21 05:01:00,
2013-03-21 01:06:00,35.1,32.0,29.26,North,351,6.7,12.1,45,0.00,,,-99.99,wx200d/1.3,2013-03-21 05:06:00,
2013-03-21 01:11:00,34.9,32.0,29.26,NNW,341,6.7,14.3,48,0.00,,,-99.99,wx200d/1.3,2013-03-21 05:11:00,
2013-03-21 01:16:00,34.5,32.0,29.26,NNW,335,5.4,9.2,50,0.00,,,-99.99,wx200d/1.3,2013-03-21 05:16:00,
2013-03-21 01:21:00,34.3,32.0,29.26,NNW,340,6.7,9.2,51,0.00,,,-99.99,wx200d/1.3,2013-03-21 05:21:00,
2013-03-21 01:26:00,34.0,32.0,29.26,NNW,337,4.9,11.2,53,0.00,,,-99.99,wx200d/1.3,2013-03-21 05:26:00,
2013-03-21 01:31:00,33.8,32.0,29.26,North,7,4.0,8.7,54,0.00,,,-99.99,wx200d/1.3,2013-03-21 05:31:00,
2013-03-21 01:36:00,33.6,32.0,29.26,NNW,346,4.0,6.9,56,0.00,,,-99.99,wx200d/1.3,2013-03-21 05:36:00,
2013-03-21 01:41:00,33.4,32.0,29.26,North,8,4.0,6.9,57,0.00,,,-99.99,wx200d/1.3,2013-03-21 05:41:00,
2013-03-21 01:46:00,33.4,32.0,29.26,NNE,17,4.9,6.3,58,0.00,,,-99.99,wx200d/1.3,2013-03-21 05:46:00,
2013-03-21 01:51:00,33.3,32.0,29.26,NNE,13,3.1,5.8,59,0.00,,,-99.99,wx200d/1.3,2013-03-21 05:51:00,
2013-03-21 01:57:00,33.3,32.0,29.26,NNE,17,3.1,4.9,59,0.00,,,-99.99,wx200d/1.3,2013-03-21 05:57:00,
2013-03-21 02:02:00,33.3,32.0,29.26,NNE,33,0.0,4.9,59,0.00,,,-99.99,wx200d/1.3,2013-03-21 06:02:00,
2013-03-21 02:07:00,33.4,32.0,29.26,NE,44,0.0,3.1,59,0.00,,,-99.99,wx200d/1.3,2013-03-21 06:07:00,
2013-03-21 02:12:00,33.4,32.0,29.26,NNE,27,4.0,5.4,59,0.00,,,-99.99,wx200d/1.3,2013-03-21 06:12:00,
2013-03-21 02:17:00,33.1,32.0,29.26,ENE,72,2.7,5.4,59,0.00,,,-99.99,wx200d/1.3,2013-03-21 06:17:00,
2013-03-21 02:22:00,33.1,32.0,29.26,ENE,73,0.0,5.4,59,0.00,,,-99.99,wx200d/1.3,2013-03-21 06:22:00,
2013-03-21 02:27:00,32.7,32.0,29.26,NE,42,3.6,6.9,60,0.00,,,-99.99,wx200d/1.3,2013-03-21 06:27:00,
2013-03-21 02:32:00,32.7,32.0,29.26,NE,44,4.0,5.8,61,0.00,,,-99.99,wx200d/1.3,2013-03-21 06:32:00,
2013-03-21 02:37:00,32.7,32.0,29.26,NE,49,0.0,6.3,61,0.00,,,-99.99,wx200d/1.3,2013-03-21 06:37:00,
2013-03-21 02:42:00,32.7,32.0,29.26,NNE,22,2.7,4.9,63,0.00,,,-99.99,wx200d/1.3,2013-03-21 06:42:00,
2013-03-21 02:47:00,32.7,32.0,29.26,NE,34,2.7,5.4,64,0.00,,,-99.99,wx200d/1.3,2013-03-21 06:47:00,
2013-03-21 02:52:00,32.7,32.0,29.26,NNE,29,3.6,5.8,66,0.00,,,-99.99,wx200d/1.3,2013-03-21 06:52:00,
2013-03-21 02:57:00,32.7,32.0,29.26,NNE,32,3.1,6.3,67,0.00,,,-99.99,wx200d/1.3,2013-03-21 06:57:00,
2013-03-21 03:02:00,32.7,32.0,29.26,NNE,22,3.6,5.8,68,0.00,,,-99.99,wx200d/1.3,2013-03-21 07:02:00,
2013-03-21 03:07:00,32.5,32.0,29.26,NNE,27,2.7,6.3,68,0.00,,,-99.99,wx200d/1.3,2013-03-21 07:07:00,
2013-03-21 03:12:00,32.5,32.0,29.26,North,7,0.0,4.9,69,0.00,,,-99.99,wx200d/1.3,2013-03-21 07:12:00,
2013-03-21 03:18:00,32.5,32.0,29.23,NNE,16,0.0,3.6,70,0.00,,,-99.99,wx200d/1.3,2013-03-21 07:18:00,
2013-03-21 03:23:00,32.5,32.0,29.23,NNE,17,0.0,2.7,70,0.00,,,-99.99,wx200d/1.3,2013-03-21 07:23:00,
2013-03-21 03:28:00,32.5,32.0,29.23,NNW,329,3.1,4.0,70,0.00,,,-99.99,wx200d/1.3,2013-03-21 07:28:00,
2013-03-21 03:33:00,32.7,32.0,29.23,NNW,330,3.6,9.2,71,0.00,,,-99.99,wx200d/1.3,2013-03-21 07:33:00,
2013-03-21 03:38:00,32.9,32.0,29.23,North,351,6.7,8.7,68,0.00,,,-99.99,wx200d/1.3,2013-03-21 07:38:00,
2013-03-21 03:43:00,32.9,32.0,29.23,North,8,4.0,7.4,58,0.00,,,-99.99,wx200d/1.3,2013-03-21 07:43:00,
2013-03-21 03:48:00,32.9,32.0,29.23,North,356,2.7,5.8,52,0.00,,,-99.99,wx200d/1.3,2013-03-21 07:48:00,
2013-03-21 03:53:00,32.9,32.0,29.23,North,356,0.0,5.4,51,0.00,,,-99.99,wx200d/1.3,2013-03-21 07:53:00,
2013-03-21 03:58:00,32.9,32.0,29.23,North,356,2.7,4.9,50,0.00,,,-99.99,wx200d/1.3,2013-03-21 07:58:00,
2013-03-21 04:03:00,32.9,32.0,29.23,North,351,0.0,4.0,50,0.00,,,-99.99,wx200d/1.3,2013-03-21 08:03:00,
2013-03-21 04:08:00,32.9,32.0,29.23,NNW,341,0.0,4.5,50,0.00,,,-99.99,wx200d/1.3,2013-03-21 08:08:00,
2013-03-21 04:13:00,32.9,32.0,29.23,NNW,330,0.0,4.0,50,0.00,,,-99.99,wx200d/1.3,2013-03-21 08:13:00,
2013-03-21 04:18:00,32.9,32.0,29.23,NNW,332,0.0,0.0,50,0.00,,,-99.99,wx200d/1.3,2013-03-21 08:18:00,
2013-03-21 04:23:00,32.9,32.0,29.23,NNW,332,0.0,0.0,50,0.00,,,-99.99,wx200d/1.3,2013-03-21 08:23:00,
2013-03-21 04:28:00,32.9,32.0,29.23,NNW,332,0.0,0.0,50,0.00,,,-99.99,wx200d/1.3,2013-03-21 08:28:00,
2013-03-21 04:33:00,32.9,32.0,29.23,NNW,332,0.0,0.0,50,0.00,,,-99.99,wx200d/1.3,2013-03-21 08:33:00,
2013-03-21 04:38:00,32.7,32.0,29.23,NNW,332,0.0,0.0,50,0.00,,,-99.99,wx200d/1.3,2013-03-21 08:38:00,
2013-03-21 04:43:00,32.7,32.0,29.23,NNW,332,0.0,0.0,51,0.00,,,-99.99,wx200d/1.3,2013-03-21 08:43:00,
2013-03-21 04:48:00,32.7,32.0,29.21,NNW,332,0.0,0.0,51,0.00,,,-99.99,wx200d/1.3,2013-03-21 08:48:00,
2013-03-21 04:53:00,32.7,32.0,29.21,NNW,332,0.0,0.0,51,0.00,,,-99.99,wx200d/1.3,2013-03-21 08:53:00,
2013-03-21 04:58:00,32.7,32.0,29.21,NNW,332,0.0,0.0,51,0.00,,,-99.99,wx200d/1.3,2013-03-21 08:58:00,
2013-03-21 05:03:00,32.7,32.0,29.21,NNW,327,0.0,3.6,51,0.00,,,-99.99,wx200d/1.3,2013-03-21 09:03:00,
2013-03-21 05:08:00,32.9,32.0,29.21,WNW,298,4.5,6.7,50,0.00,,,-99.99,wx200d/1.3,2013-03-21 09:08:00,
2013-03-21 05:13:00,32.9,32.0,29.21,WNW,303,5.4,8.3,46,0.00,,,-99.99,wx200d/1.3,2013-03-21 09:13:00,
2013-03-21 05:18:00,33.1,32.0,29.21,NNW,337,6.3,10.1,43,0.00,,,-99.99,wx200d/1.3,2013-03-21 09:18:00,
2013-03-21 05:23:00,33.1,32.0,29.21,NW,313,0.0,7.4,41,0.00,,,-99.99,wx200d/1.3,2013-03-21 09:23:00,
2013-03-21 05:28:00,33.3,32.0,29.21,NNW,336,4.5,6.7,40,0.00,,,-99.99,wx200d/1.3,2013-03-21 09:28:00,
2013-03-21 05:33:00,33.1,32.0,29.21,NW,309,4.9,8.7,40,0.00,,,-99.99,wx200d/1.3,2013-03-21 09:33:00,
2013-03-21 05:38:00,33.1,32.0,29.21,NNE,32,0.0,8.7,39,0.00,,,-99.99,wx200d/1.3,2013-03-21 09:38:00,
2013-03-21 05:43:00,33.1,32.0,29.21,NW,311,8.3,10.5,37,0.00,,,-99.99,wx200d/1.3,2013-03-21 09:43:00,
2013-03-21 05:48:00,33.1,32.0,29.21,NW,310,5.8,9.6,37,0.00,,,-99.99,wx200d/1.3,2013-03-21 09:48:00,
2013-03-21 05:53:00,33.1,32.0,29.21,North,351,6.3,11.2,37,0.00,,,-99.99,wx200d/1.3,2013-03-21 09:53:00,
2013-03-21 05:58:00,32.9,32.0,29.21,NNW,329,5.8,9.2,40,0.00,,,-99.99,wx200d/1.3,2013-03-21 09:58:00,
2013-03-21 06:03:00,32.7,32.0,29.21,NNW,329,6.7,9.6,40,0.00,,,-99.99,wx200d/1.3,2013-03-21 10:03:00,
2013-03-21 06:08:00,32.7,32.0,29.21,WNW,300,5.8,9.6,41,0.00,,,-99.99,wx200d/1.3,2013-03-21 10:08:00,
2013-03-21 06:14:00,32.5,32.0,29.21,NNW,333,6.7,8.7,41,0.00,,,-99.99,wx200d/1.3,2013-03-21 10:14:00,
2013-03-21 06:19:00,32.5,32.0,29.21,NW,318,5.8,9.2,42,0.00,,,-99.99,wx200d/1.3,2013-03-21 10:19:00,
2013-03-21 06:24:00,32.4,32.0,29.21,NNW,346,5.4,7.4,42,0.00,,,-99.99,wx200d/1.3,2013-03-21 10:24:00,
2013-03-21 06:29:00,32.2,32.0,29.21,NNW,342,4.9,9.6,43,0.00,,,-99.99,wx200d/1.3,2013-03-21 10:29:00,
2013-03-21 06:34:00,32.2,32.0,29.23,WNW,287,4.9,7.8,44,0.00,,,-99.99,wx200d/1.3,2013-03-21 10:34:00,
2013-03-21 06:39:00,32.2,32.0,29.23,NNW,343,6.7,8.3,44,0.00,,,-99.99,wx200d/1.3,2013-03-21 10:39:00,
2013-03-21 06:44:00,32.2,32.0,29.23,NNW,331,6.3,11.2,44,0.00,,,-99.99,wx200d/1.3,2013-03-21 10:44:00,
2013-03-21 06:49:00,32.2,32.0,29.23,North,351,2.7,7.8,44,0.00,,,-99.99,wx200d/1.3,2013-03-21 10:49:00,
2013-03-21 06:54:00,32.2,32.0,29.23,NNE,14,4.9,9.2,43,0.00,,,-99.99,wx200d/1.3,2013-03-21 10:54:00,
2013-03-21 06:59:00,32.2,32.0,29.23,NNW,341,5.8,10.1,43,0.00,,,-99.99,wx200d/1.3,2013-03-21 10:59:00,
2013-03-21 07:04:00,32.0,32.0,29.23,NNE,21,9.2,12.1,42,0.00,,,-99.99,wx200d/1.3,2013-03-21 11:04:00,
2013-03-21 07:09:00,32.0,32.0,29.23,North,351,6.9,11.6,42,0.00,,,-99.99,wx200d/1.3,2013-03-21 11:09:00,
2013-03-21 07:14:00,31.8,32.0,29.23,NW,322,4.9,11.2,42,0.00,,,-99.99,wx200d/1.3,2013-03-21 11:14:00,
2013-03-21 07:19:00,31.6,32.0,29.23,NNW,346,9.2,12.5,41,0.00,,,-99.99,wx200d/1.3,2013-03-21 11:19:00,
2013-03-21 07:24:00,31.5,32.0,29.23,ENE,65,7.4,11.0,40,0.00,,,-99.99,wx200d/1.3,2013-03-21 11:24:00,
2013-03-21 07:29:00,31.3,32.0,29.23,NNW,336,6.7,12.5,35,0.00,,,-99.99,wx200d/1.3,2013-03-21 11:29:00,
2013-03-21 07:34:00,31.5,32.0,29.23,WNW,290,6.7,11.0,33,0.00,,,-99.99,wx200d/1.3,2013-03-21 11:34:00,
2013-03-21 07:39:00,31.5,32.0,29.23,North,7,7.4,12.1,33,0.00,,,-99.99,wx200d/1.3,2013-03-21 11:39:00,
2013-03-21 07:44:00,31.5,32.0,29.23,NNW,346,5.4,9.6,33,0.00,,,-99.99,wx200d/1.3,2013-03-21 11:44:00,
2013-03-21 07:49:00,31.5,32.0,29.23,NNE,16,5.4,8.7,34,0.00,,,-99.99,wx200d/1.3,2013-03-21 11:49:00,
2013-03-21 07:54:00,31.3,32.0,29.23,North,356,4.5,7.8,34,0.00,,,-99.99,wx200d/1.3,2013-03-21 11:54:00,
2013-03-21 07:59:00,31.3,32.0,29.23,NNE,18,5.4,8.3,33,0.00,,,-99.99,wx200d/1.3,2013-03-21 11:59:00,
2013-03-21 08:04:00,31.3,32.0,29.23,NNW,345,4.9,7.4,33,0.00,,,-99.99,wx200d/1.3,2013-03-21 12:04:00,
2013-03-21 08:09:00,31.3,32.0,29.23,NE,47,4.5,8.7,32,0.00,,,-99.99,wx200d/1.3,2013-03-21 12:09:00,
2013-03-21 08:14:00,31.3,32.0,29.23,North,356,3.6,6.9,32,0.00,,,-99.99,wx200d/1.3,2013-03-21 12:14:00,
2013-03-21 08:19:00,31.3,32.0,29.23,NNE,14,4.0,6.3,32,0.00,,,-99.99,wx200d/1.3,2013-03-21 12:19:00,
2013-03-21 08:24:00,31.3,32.0,29.23,NNW,347,4.9,10.1,32,0.00,,,-99.99,wx200d/1.3,2013-03-21 12:24:00,
2013-03-21 08:29:00,31.3,32.0,29.23,North,8,6.7,9.6,32,0.00,,,-99.99,wx200d/1.3,2013-03-21 12:29:00,
2013-03-21 08:34:00,31.3,32.0,29.23,NW,320,5.4,8.7,32,0.00,,,-99.99,wx200d/1.3,2013-03-21 12:34:00,
2013-03-21 08:39:00,31.5,32.0,29.23,NNW,347,5.8,10.1,32,0.00,,,-99.99,wx200d/1.3,2013-03-21 12:39:00,
2013-03-21 08:44:00,31.6,32.0,29.23,North,5,4.9,8.3,33,0.00,,,-99.99,wx200d/1.3,2013-03-21 12:44:00,
2013-03-21 08:50:00,31.6,32.0,29.23,NNW,345,6.9,11.2,32,0.00,,,-99.99,wx200d/1.3,2013-03-21 12:50:00,
2013-03-21 08:55:00,31.6,32.0,29.23,North,351,5.4,10.1,32,0.00,,,-99.99,wx200d/1.3,2013-03-21 12:55:00,
2013-03-21 09:00:00,31.8,32.0,29.23,North,2,3.6,7.4,33,0.00,,,-99.99,wx200d/1.3,2013-03-21 13:00:00,
2013-03-21 09:05:00,31.8,32.0,29.23,North,2,5.4,8.7,32,0.00,,,-99.99,wx200d/1.3,2013-03-21 13:05:00,
2013-03-21 09:10:00,31.8,32.0,29.23,North,356,4.9,8.7,32,0.00,,,-99.99,wx200d/1.3,2013-03-21 13:10:00,
2013-03-21 09:15:00,31.8,32.0,29.23,NNW,342,4.9,9.2,32,0.00,,,-99.99,wx200d/1.3,2013-03-21 13:15:00,
2013-03-21 09:20:00,31.8,32.0,29.23,NW,307,6.9,10.1,31,0.00,,,-99.99,wx200d/1.3,2013-03-21 13:20:00,
2013-03-21 09:25:00,31.8,32.0,29.23,NNW,339,5.8,10.1,31,0.00,,,-99.99,wx200d/1.3,2013-03-21 13:25:00,
2013-03-21 09:30:00,31.8,32.0,29.23,NNW,331,5.4,10.1,31,0.00,,,-99.99,wx200d/1.3,2013-03-21 13:30:00,
2013-03-21 09:35:00,31.8,32.0,29.23,NNW,347,7.8,11.0,31,0.00,,,-99.99,wx200d/1.3,2013-03-21 13:35:00,
2013-03-21 09:40:00,32.0,32.0,29.23,NW,324,5.4,11.0,31,0.00,,,-99.99,wx200d/1.3,2013-03-21 13:40:00,
2013-03-21 09:45:00,32.0,32.0,29.23,NNW,344,6.7,10.1,31,0.00,,,-99.99,wx200d/1.3,2013-03-21 13:45:00,
2013-03-21 09:50:00,32.0,32.0,29.23,North,351,8.3,11.2,31,0.00,,,-99.99,wx200d/1.3,2013-03-21 13:50:00,
2013-03-21 09:55:00,32.0,32.0,29.23,NW,323,3.6,10.5,31,0.00,,,-99.99,wx200d/1.3,2013-03-21 13:55:00,
2013-03-21 10:00:00,31.8,32.0,29.23,North,11,7.4,12.5,31,0.00,,,-99.99,wx200d/1.3,2013-03-21 14:00:00,
2013-03-21 10:05:00,31.8,32.0,29.23,NNW,344,4.5,9.6,31,0.00,,,-99.99,wx200d/1.3,2013-03-21 14:05:00,
2013-03-21 10:10:00,32.2,32.0,29.23,North,356,6.3,9.6,31,0.00,,,-99.99,wx200d/1.3,2013-03-21 14:10:00,
2013-03-21 10:15:00,32.2,32.0,29.23,North,356,5.8,9.2,31,0.00,,,-99.99,wx200d/1.3,2013-03-21 14:15:00,
2013-03-21 10:20:00,32.5,32.0,29.21,NNW,347,5.8,10.1,31,0.00,,,-99.99,wx200d/1.3,2013-03-21 14:20:00,
2013-03-21 10:25:00,32.9,32.0,29.21,NNW,339,6.9,9.6,31,0.00,,,-99.99,wx200d/1.3,2013-03-21 14:25:00,
2013-03-21 10:30:00,32.7,32.0,29.21,NW,308,7.4,11.0,31,0.00,,,-99.99,wx200d/1.3,2013-03-21 14:30:00,
2013-03-21 10:35:00,32.7,32.0,29.21,NW,306,10.1,12.5,31,0.00,,,-99.99,wx200d/1.3,2013-03-21 14:35:00,
2013-03-21 10:40:00,33.1,32.0,29.21,WNW,297,8.7,13.9,30,0.00,,,-99.99,wx200d/1.3,2013-03-21 14:40:00,
2013-03-21 10:45:00,32.9,32.0,29.21,NW,309,6.7,13.0,30,0.00,,,-99.99,wx200d/1.3,2013-03-21 14:45:00,
2013-03-21 10:50:00,33.3,32.0,29.21,NNW,327,8.7,13.0,30,0.00,,,-99.99,wx200d/1.3,2013-03-21 14:50:00,
2013-03-21 10:55:00,33.3,32.0,29.21,NNW,330,8.7,11.2,30,0.00,,,-99.99,wx200d/1.3,2013-03-21 14:55:00,
2013-03-21 11:00:00,33.1,32.0,29.21,North,351,7.8,15.9,30,0.00,,,-99.99,wx200d/1.3,2013-03-21 15:00:00,
2013-03-21 11:05:00,33.3,32.0,29.21,North,351,8.7,12.5,30,0.00,,,-99.99,wx200d/1.3,2013-03-21 15:05:00,
2013-03-21 11:10:00,33.6,32.0,29.21,WSW,250,10.5,12.5,30,0.00,,,-99.99,wx200d/1.3,2013-03-21 15:10:00,
2013-03-21 11:15:00,33.8,32.0,29.21,NW,324,9.6,14.3,27,0.00,,,-99.99,wx200d/1.3,2013-03-21 15:15:00,
2013-03-21 11:20:00,34.0,32.0,29.21,NW,325,9.6,14.8,27,0.00,,,-99.99,wx200d/1.3,2013-03-21 15:20:00,
2013-03-21 11:25:00,33.8,32.0,29.21,North,351,7.8,15.9,27,0.00,,,-99.99,wx200d/1.3,2013-03-21 15:25:00,
2013-03-21 11:30:00,33.6,32.0,29.21,NW,315,7.4,15.2,27,0.00,,,-99.99,wx200d/1.3,2013-03-21 15:30:00,
2013-03-21 11:35:00,34.0,32.0,29.21,NW,314,8.7,12.1,27,0.00,,,-99.99,wx200d/1.3,2013-03-21 15:35:00,
2013-03-21 11:40:00,34.2,32.0,29.21,NW,326,9.6,12.5,27,0.00,,,-99.99,wx200d/1.3,2013-03-21 15:40:00,
2013-03-21 11:45:00,34.0,32.0,29.21,NNW,334,7.8,13.4,27,0.00,,,-99.99,wx200d/1.3,2013-03-21 15:45:00,
2013-03-21 11:50:00,34.0,32.0,29.21,NNW,334,8.3,12.5,27,0.00,,,-99.99,wx200d/1.3,2013-03-21 15:50:00,
2013-03-21 11:55:00,33.8,32.0,29.21,NNW,342,8.7,12.5,27,0.00,,,-99.99,wx200d/1.3,2013-03-21 15:55:00,
2013-03-21 12:00:00,33.6,32.0,29.21,NNW,338,9.6,15.2,27,0.00,,,-99.99,wx200d/1.3,2013-03-21 16:00:00,
2013-03-21 12:05:00,33.8,32.0,29.21,North,351,5.8,13.4,27,0.00,,,-99.99,wx200d/1.3,2013-03-21 16:05:00,
2013-03-21 12:10:00,33.8,32.0,29.21,WNW,302,5.4,13.0,27,0.00,,,-99.99,wx200d/1.3,2013-03-21 16:10:00,
2013-03-21 12:15:00,33.8,32.0,29.18,NNW,337,9.2,13.9,27,0.00,,,-99.99,wx200d/1.3,2013-03-21 16:15:00,
2013-03-21 12:20:00,33.8,32.0,29.18,NNE,23,7.4,13.9,27,0.00,,,-99.99,wx200d/1.3,2013-03-21 16:20:00,
2013-03-21 12:25:00,33.8,32.0,29.18,NNW,347,8.7,14.3,27,0.00,,,-99.99,wx200d/1.3,2013-03-21 16:25:00,
2013-03-21 12:30:00,33.6,32.0,29.18,NNW,340,9.6,14.3,27,0.00,,,-99.99,wx200d/1.3,2013-03-21 16:30:00,
2013-03-21 12:35:00,33.6,32.0,29.18,North,351,7.4,11.2,27,0.00,,,-99.99,wx200d/1.3,2013-03-21 16:35:00,
2013-03-21 12:40:00,34.2,32.0,29.18,WNW,299,8.7,13.9,30,0.00,,,-99.99,wx200d/1.3,2013-03-21 16:40:00,
2013-03-21 12:45:00,33.8,32.0,29.21,NW,314,6.9,15.2,27,0.00,,,-99.99,wx200d/1.3,2013-03-21 16:45:00,
2013-03-21 12:50:00,34.0,32.0,29.21,North,351,6.9,11.2,27,0.00,,,-99.99,wx200d/1.3,2013-03-21 16:50:00,
2013-03-21 12:56:00,34.0,32.0,29.21,WNW,301,12.5,16.3,27,0.00,,,-99.99,wx200d/1.3,2013-03-21 16:56:00,
2013-03-21 13:01:00,34.0,32.0,29.18,NW,320,9.2,13.9,27,0.00,,,-99.99,wx200d/1.3,2013-03-21 17:01:00,
2013-03-21 13:06:00,33.8,32.0,29.18,NNW,332,6.9,12.5,27,0.00,,,-99.99,wx200d/1.3,2013-03-21 17:06:00,
2013-03-21 13:11:00,34.2,32.0,29.18,NW,305,8.3,12.1,27,0.00,,,-99.99,wx200d/1.3,2013-03-21 17:11:00,
2013-03-21 13:16:00,34.3,32.0,29.18,NNW,346,8.7,12.5,27,0.00,,,-99.99,wx200d/1.3,2013-03-21 17:16:00,
2013-03-21 13:21:00,34.3,32.0,29.18,NNW,343,7.4,13.4,27,0.00,,,-99.99,wx200d/1.3,2013-03-21 17:21:00,
2013-03-21 13:26:00,34.2,32.0,29.18,NNW,341,6.7,13.4,27,0.00,,,-99.99,wx200d/1.3,2013-03-21 17:26:00,
2013-03-21 13:31:00,34.0,32.0,29.18,NW,313,12.5,18.1,27,0.00,,,-99.99,wx200d/1.3,2013-03-21 17:31:00,
2013-03-21 13:36:00,34.3,32.0,29.18,NNW,329,11.6,15.9,30,0.00,,,-99.99,wx200d/1.3,2013-03-21 17:36:00,
2013-03-21 13:41:00,34.9,32.0,29.18,North,356,5.8,14.3,27,0.00,,,-99.99,wx200d/1.3,2013-03-21 17:41:00,
2013-03-21 13:46:00,34.7,32.0,29.18,NNW,345,8.3,13.9,27,0.00,,,-99.99,wx200d/1.3,2013-03-21 17:46:00,
2013-03-21 13:51:00,34.5,32.0,29.18,WNW,298,13.0,19.5,25,0.00,,,-99.99,wx200d/1.3,2013-03-21 17:51:00,
2013-03-21 13:56:00,34.5,32.0,29.18,NW,311,13.0,18.6,25,0.00,,,-99.99,wx200d/1.3,2013-03-21 17:56:00,
2013-03-21 14:01:00,34.7,32.0,29.18,West,268,12.1,19.0,29,0.00,,,-99.99,wx200d/1.3,2013-03-21 18:01:00,
2013-03-21 14:06:00,34.2,32.0,29.18,NNW,331,11.0,16.3,27,0.00,,,-99.99,wx200d/1.3,2013-03-21 18:06:00,
2013-03-21 14:12:00,34.2,32.0,29.18,NW,316,9.6,15.9,27,0.00,,,-99.99,wx200d/1.3,2013-03-21 18:12:00,
2013-03-21 14:17:00,34.5,32.0,29.18,NNW,345,10.5,16.3,27,0.00,,,-99.99,wx200d/1.3,2013-03-21 18:17:00,
2013-03-21 14:22:00,35.1,32.0,29.18,NNW,345,6.9,13.9,27,0.00,,,-99.99,wx200d/1.3,2013-03-21 18:22:00,
2013-03-21 14:27:00,35.2,32.0,29.18,NW,319,8.7,16.3,27,0.00,,,-99.99,wx200d/1.3,2013-03-21 18:27:00,
2013-03-21 14:32:00,34.5,32.0,29.18,NW,310,11.2,17.2,27,0.00,,,-99.99,wx200d/1.3,2013-03-21 18:32:00,
2013-03-21 14:37:00,34.0,32.0,29.18,West,279,13.9,22.8,30,0.00,,,-99.99,wx200d/1.3,2013-03-21 18:37:00,
2013-03-21 14:42:00,33.8,32.0,29.18,NW,319,10.5,17.2,30,0.00,,,-99.99,wx200d/1.3,2013-03-21 18:42:00,
2013-03-21 14:47:00,34.0,32.0,29.15,NNW,331,10.1,13.9,27,0.00,,,-99.99,wx200d/1.3,2013-03-21 18:47:00,
2013-03-21 14:52:00,34.2,32.0,29.15,NW,324,10.1,16.8,27,0.00,,,-99.99,wx200d/1.3,2013-03-21 18:52:00,
2013-03-21 14:57:00,34.9,32.0,29.15,NW,320,8.3,14.8,29,0.00,,,-99.99,wx200d/1.3,2013-03-21 18:57:00,
2013-03-21 15:02:00,35.2,32.0,29.15,North,356,14.8,20.1,27,0.00,,,-99.99,wx200d/1.3,2013-03-21 19:02:00,
2013-03-21 15:07:00,34.5,32.0,29.15,NNW,334,12.5,19.9,27,0.00,,,-99.99,wx200d/1.3,2013-03-21 19:07:00,
2013-03-21 15:12:00,33.8,32.0,29.15,West,262,16.3,19.5,27,0.00,,,-99.99,wx200d/1.3,2013-03-21 19:12:00,
2013-03-21 15:17:00,33.6,32.0,29.15,NNW,336,9.6,17.2,27,0.00,,,-99.99,wx200d/1.3,2013-03-21 19:17:00,
2013-03-21 15:22:00,33.8,32.0,29.15,WNW,299,6.7,16.3,27,0.00,,,-99.99,wx200d/1.3,2013-03-21 19:22:00,
2013-03-21 15:27:00,34.3,32.0,29.15,West,268,14.8,19.0,25,0.00,,,-99.99,wx200d/1.3,2013-03-21 19:27:00,
2013-03-21 15:32:00,34.9,32.0,29.15,West,281,13.4,18.1,27,0.00,,,-99.99,wx200d/1.3,2013-03-21 19:32:00,
2013-03-21 15:37:00,35.6,32.0,29.15,West,262,11.6,17.2,24,0.00,,,-99.99,wx200d/1.3,2013-03-21 19:37:00,
2013-03-21 15:42:00,34.9,32.0,29.15,NNW,332,16.3,19.5,27,0.00,,,-99.99,wx200d/1.3,2013-03-21 19:42:00,
2013-03-21 15:47:00,34.2,32.0,29.15,WNW,293,14.8,19.0,30,0.00,,,-99.99,wx200d/1.3,2013-03-21 19:47:00,
2013-03-21 15:52:00,33.8,32.0,29.15,NW,326,11.2,15.9,30,0.00,,,-99.99,wx200d/1.3,2013-03-21 19:52:00,
2013-03-21 15:57:00,33.6,32.0,29.15,NNW,333,10.1,16.3,30,0.00,,,-99.99,wx200d/1.3,2013-03-21 19:57:00,
2013-03-21 16:02:00,34.0,32.0,29.15,NNW,345,9.6,14.3,30,0.00,,,-99.99,wx200d/1.3,2013-03-21 20:02:00,
2013-03-21 16:07:00,34.2,32.0,29.15,NW,319,8.7,14.3,30,0.00,,,-99.99,wx200d/1.3,2013-03-21 20:07:00,
2013-03-21 16:12:00,34.2,32.0,29.15,NNW,347,10.1,13.4,27,0.00,,,-99.99,wx200d/1.3,2013-03-21 20:12:00,
2013-03-21 16:17:00,34.3,32.0,29.15,NW,317,10.5,15.2,27,0.00,,,-99.99,wx200d/1.3,2013-03-21 20:17:00,
2013-03-21 16:23:00,34.5,32.0,29.15,WNW,298,12.5,18.1,25,0.00,,,-99.99,wx200d/1.3,2013-03-21 20:23:00,
2013-03-21 16:28:00,34.2,32.0,29.15,West,279,8.3,12.1,25,0.00,,,-99.99,wx200d/1.3,2013-03-21 20:28:00,
2013-03-21 16:33:00,34.0,32.0,29.15,WNW,291,10.1,15.9,27,0.00,,,-99.99,wx200d/1.3,2013-03-21 20:33:00,
2013-03-21 16:38:00,33.8,32.0,29.15,NW,308,10.5,17.2,25,0.00,,,-99.99,wx200d/1.3,2013-03-21 20:38:00,
2013-03-21 16:43:00,33.8,32.0,29.15,West,279,15.4,21.9,25,0.00,,,-99.99,wx200d/1.3,2013-03-21 20:43:00,
2013-03-21 16:48:00,34.0,32.0,29.15,West,266,16.8,19.5,25,0.00,,,-99.99,wx200d/1.3,2013-03-21 20:48:00,
2013-03-21 16:53:00,34.0,32.0,29.15,West,276,13.4,18.6,25,0.00,,,-99.99,wx200d/1.3,2013-03-21 20:53:00,
2013-03-21 16:58:00,34.5,32.0,29.15,WNW,296,13.4,19.5,25,0.00,,,-99.99,wx200d/1.3,2013-03-21 20:58:00,
2013-03-21 17:03:00,35.4,32.0,29.15,West,275,13.9,19.5,24,0.00,,,-99.99,wx200d/1.3,2013-03-21 21:03:00,
2013-03-21 17:08:00,35.4,32.0,29.15,West,277,18.6,24.8,24,0.00,,,-99.99,wx200d/1.3,2013-03-21 21:08:00,
2013-03-21 17:13:00,34.9,32.0,29.15,WNW,290,16.8,23.3,24,0.00,,,-99.99,wx200d/1.3,2013-03-21 21:13:00,
2013-03-21 17:18:00,34.2,32.0,29.18,West,265,15.4,22.4,25,0.00,,,-99.99,wx200d/1.3,2013-03-21 21:18:00,
2013-03-21 17:23:00,34.0,32.0,29.18,WNW,297,15.4,21.0,25,0.00,,,-99.99,wx200d/1.3,2013-03-21 21:23:00,
2013-03-21 17:28:00,33.6,32.0,29.18,WNW,283,12.1,19.9,25,0.00,,,-99.99,wx200d/1.3,2013-03-21 21:28:00,
2013-03-21 17:33:00,33.3,32.0,29.18,WNW,289,15.4,18.6,25,0.00,,,-99.99,wx200d/1.3,2013-03-21 21:33:00,
2013-03-21 17:38:00,33.1,32.0,29.18,WNW,294,13.0,16.3,25,0.00,,,-99.99,wx200d/1.3,2013-03-21 21:38:00,
2013-03-21 17:43:00,33.1,32.0,29.18,WNW,290,14.8,19.9,25,0.00,,,-99.99,wx200d/1.3,2013-03-21 21:43:00,
2013-03-21 17:48:00,33.1,32.0,29.18,WNW,297,13.9,19.9,25,0.00,,,-99.99,wx200d/1.3,2013-03-21 21:48:00,
2013-03-21 17:53:00,33.4,32.0,29.18,West,276,15.2,21.9,25,0.00,,,-99.99,wx200d/1.3,2013-03-21 21:53:00,
2013-03-21 17:58:00,33.4,32.0,29.18,WNW,290,15.4,26.2,25,0.00,,,-99.99,wx200d/1.3,2013-03-21 21:58:00,
2013-03-21 18:03:00,32.9,32.0,29.18,NW,304,14.3,23.7,25,0.00,,,-99.99,wx200d/1.3,2013-03-21 22:03:00,
2013-03-21 18:08:00,32.9,32.0,29.18,WNW,285,12.5,18.6,25,0.00,,,-99.99,wx200d/1.3,2013-03-21 22:08:00,
2013-03-21 18:13:00,33.1,32.0,29.18,WNW,289,14.8,21.9,25,0.00,,,-99.99,wx200d/1.3,2013-03-21 22:13:00,
2013-03-21 18:18:00,33.1,32.0,29.18,WNW,295,16.8,21.9,25,0.00,,,-99.99,wx200d/1.3,2013-03-21 22:18:00,
2013-03-21 18:23:00,33.1,32.0,29.18,West,276,18.6,27.1,25,0.00,,,-99.99,wx200d/1.3,2013-03-21 22:23:00,
2013-03-21 18:28:00,32.7,32.0,29.18,WNW,285,18.6,25.3,25,0.00,,,-99.99,wx200d/1.3,2013-03-21 22:28:00,
2013-03-21 18:33:00,32.5,32.0,29.21,West,277,16.3,20.6,25,0.00,,,-99.99,wx200d/1.3,2013-03-21 22:33:00,
2013-03-21 18:38:00,32.0,32.0,29.21,West,271,13.4,22.4,25,0.00,,,-99.99,wx200d/1.3,2013-03-21 22:38:00,
2013-03-21 18:43:00,32.0,32.0,29.21,WNW,296,18.6,20.1,25,0.00,,,-99.99,wx200d/1.3,2013-03-21 22:43:00,
2013-03-21 18:48:00,32.0,32.0,29.21,West,279,13.9,17.2,25,0.00,,,-99.99,wx200d/1.3,2013-03-21 22:48:00,
2013-03-21 18:53:00,31.5,32.0,29.21,WSW,255,13.4,19.5,25,0.00,,,-99.99,wx200d/1.3,2013-03-21 22:53:00,
2013-03-21 18:58:00,31.3,32.0,29.21,WNW,293,13.9,20.6,25,0.00,,,-99.99,wx200d/1.3,2013-03-21 22:58:00,
2013-03-21 19:03:00,31.1,32.0,29.21,WNW,285,13.4,19.5,25,0.00,,,-99.99,wx200d/1.3,2013-03-21 23:03:00,
2013-03-21 19:08:00,31.1,32.0,29.21,WNW,285,14.8,18.1,25,0.00,,,-99.99,wx200d/1.3,2013-03-21 23:08:00,
2013-03-21 19:13:00,30.7,32.0,29.21,WNW,289,11.2,17.7,25,0.00,,,-99.99,wx200d/1.3,2013-03-21 23:13:00,
2013-03-21 19:18:00,30.6,32.0,29.21,NW,307,13.9,18.6,25,0.00,,,-99.99,wx200d/1.3,2013-03-21 23:18:00,
2013-03-21 19:23:00,30.6,32.0,29.21,WNW,289,12.1,17.2,25,0.00,,,-99.99,wx200d/1.3,2013-03-21 23:23:00,
2013-03-21 19:28:00,30.4,32.0,29.21,NW,309,11.0,16.3,25,0.00,,,-99.99,wx200d/1.3,2013-03-21 23:28:00,
2013-03-21 19:34:00,30.4,32.0,29.21,WNW,282,13.4,17.2,25,0.00,,,-99.99,wx200d/1.3,2013-03-21 23:34:00,
2013-03-21 19:39:00,30.4,32.0,29.21,West,281,12.5,17.7,25,0.00,,,-99.99,wx200d/1.3,2013-03-21 23:39:00,
2013-03-21 19:44:00,30.2,32.0,29.21,WSW,255,8.7,13.9,25,0.00,,,-99.99,wx200d/1.3,2013-03-21 23:44:00,
2013-03-21 19:49:00,30.0,32.0,29.23,West,273,12.1,15.9,25,0.00,,,-99.99,wx200d/1.3,2013-03-21 23:49:00,
2013-03-21 19:54:00,30.0,32.0,29.23,West,262,11.2,16.8,25,0.00,,,-99.99,wx200d/1.3,2013-03-21 23:54:00,
2013-03-21 19:59:00,30.0,32.0,29.23,West,262,12.5,17.2,25,0.00,,,-99.99,wx200d/1.3,2013-03-21 23:59:00,
2013-03-21 20:04:00,29.8,32.0,29.23,WSW,256,10.5,15.9,25,0.00,,,-99.99,wx200d/1.3,2013-03-22 00:04:00,
2013-03-21 20:09:00,29.8,32.0,29.23,WNW,284,9.6,14.3,25,0.00,,,-99.99,wx200d/1.3,2013-03-22 00:09:00,
2013-03-21 20:14:00,29.7,32.0,29.23,WNW,284,14.8,17.7,25,0.00,,,-99.99,wx200d/1.3,2013-03-22 00:14:00,
2013-03-21 20:19:00,29.7,32.0,29.23,West,275,13.0,15.9,25,0.00,,,-99.99,wx200d/1.3,2013-03-22 00:19:00,
2013-03-21 20:24:00,29.7,32.0,29.23,West,278,13.4,17.2,25,0.00,,,-99.99,wx200d/1.3,2013-03-22 00:24:00,
2013-03-21 20:29:00,29.7,32.0,29.23,WNW,287,9.6,15.9,25,0.00,,,-99.99,wx200d/1.3,2013-03-22 00:29:00,
2013-03-21 20:34:00,29.5,32.0,29.23,West,274,11.6,15.2,25,0.00,,,-99.99,wx200d/1.3,2013-03-22 00:34:00,
2013-03-21 20:39:00,29.3,32.0,29.23,West,281,10.1,14.3,25,0.00,,,-99.99,wx200d/1.3,2013-03-22 00:39:00,
2013-03-21 20:44:00,29.1,32.0,29.23,WNW,291,9.2,13.4,28,0.00,,,-99.99,wx200d/1.3,2013-03-22 00:44:00,
2013-03-21 20:49:00,29.1,32.0,29.23,WNW,287,8.7,13.4,28,0.00,,,-99.99,wx200d/1.3,2013-03-22 00:49:00,
2013-03-21 20:54:00,28.9,32.0,29.23,WNW,290,11.0,13.0,28,0.00,,,-99.99,wx200d/1.3,2013-03-22 00:54:00,
2013-03-21 20:59:00,29.1,32.0,29.23,West,262,10.1,12.1,28,0.00,,,-99.99,wx200d/1.3,2013-03-22 00:59:00,
2013-03-21 21:04:00,28.9,32.0,29.23,WNW,289,7.8,11.6,28,0.00,,,-99.99,wx200d/1.3,2013-03-22 01:04:00,
2013-03-21 21:09:00,28.9,32.0,29.23,West,259,8.7,14.8,28,0.00,,,-99.99,wx200d/1.3,2013-03-22 01:09:00,
2013-03-21 21:14:00,28.9,32.0,29.23,West,280,10.1,11.6,28,0.00,,,-99.99,wx200d/1.3,2013-03-22 01:14:00,
2013-03-21 21:19:00,28.8,32.0,29.23,WSW,256,10.1,11.0,28,0.00,,,-99.99,wx200d/1.3,2013-03-22 01:19:00,
2013-03-21 21:24:00,28.6,32.0,29.23,West,279,7.8,11.6,28,0.00,,,-99.99,wx200d/1.3,2013-03-22 01:24:00,
2013-03-21 21:29:00,28.6,32.0,29.23,West,262,7.8,10.5,28,0.00,,,-99.99,wx200d/1.3,2013-03-22 01:29:00,
2013-03-21 21:34:00,28.6,32.0,29.23,West,271,8.7,11.6,28,0.00,,,-99.99,wx200d/1.3,2013-03-22 01:34:00,
2013-03-21 21:39:00,28.4,32.0,29.23,West,265,9.2,11.0,28,0.00,,,-99.99,wx200d/1.3,2013-03-22 01:39:00,
2013-03-21 21:44:00,28.4,32.0,29.23,WNW,282,10.1,11.2,31,0.00,,,-99.99,wx200d/1.3,2013-03-22 01:44:00,
2013-03-21 21:49:00,28.4,32.0,29.26,WNW,293,9.2,11.2,31,0.00,,,-99.99,wx200d/1.3,2013-03-22 01:49:00,
2013-03-21 21:54:00,28.4,32.0,29.26,West,259,9.2,11.6,31,0.00,,,-99.99,wx200d/1.3,2013-03-22 01:54:00,
2013-03-21 21:59:00,28.4,32.0,29.26,West,274,8.7,13.0,31,0.00,,,-99.99,wx200d/1.3,2013-03-22 01:59:00,
2013-03-21 22:04:00,28.4,32.0,29.26,West,267,8.3,11.6,31,0.00,,,-99.99,wx200d/1.3,2013-03-22 02:04:00,
2013-03-21 22:09:00,28.2,32.0,29.26,West,259,9.2,10.5,31,0.00,,,-99.99,wx200d/1.3,2013-03-22 02:09:00,
2013-03-21 22:14:00,28.2,32.0,29.26,West,264,7.8,10.1,31,0.00,,,-99.99,wx200d/1.3,2013-03-22 02:14:00,
2013-03-21 22:19:00,28.2,32.0,29.26,WSW,254,8.7,10.1,31,0.00,,,-99.99,wx200d/1.3,2013-03-22 02:19:00,
2013-03-21 22:24:00,28.2,32.0,29.26,West,259,7.8,10.5,31,0.00,,,-99.99,wx200d/1.3,2013-03-22 02:24:00,
2013-03-21 22:29:00,28.0,32.0,29.26,West,264,7.4,8.7,31,0.00,,,-99.99,wx200d/1.3,2013-03-22 02:29:00,
2013-03-21 22:34:00,27.9,32.0,29.26,West,269,6.3,8.3,31,0.00,,,-99.99,wx200d/1.3,2013-03-22 02:34:00,
2013-03-21 22:39:00,27.7,32.0,29.26,WSW,255,5.4,6.9,31,0.00,,,-99.99,wx200d/1.3,2013-03-22 02:39:00,
2013-03-21 22:44:00,27.5,32.0,29.26,WSW,255,6.3,6.9,31,0.00,,,-99.99,wx200d/1.3,2013-03-22 02:44:00,
2013-03-21 22:49:00,27.3,32.0,29.26,WSW,249,5.8,7.4,32,0.00,,,-99.99,wx200d/1.3,2013-03-22 02:49:00,
2013-03-21 22:54:00,27.1,32.0,29.26,WSW,255,6.7,8.3,32,0.00,,,-99.99,wx200d/1.3,2013-03-22 02:54:00,
2013-03-21 22:59:00,27.5,32.0,29.26,WSW,255,7.8,11.6,32,0.00,,,-99.99,wx200d/1.3,2013-03-22 02:59:00,
2013-03-21 23:04:00,27.9,32.0,29.26,West,271,9.6,11.6,31,0.00,,,-99.99,wx200d/1.3,2013-03-22 03:04:00,
2013-03-21 23:10:00,28.2,32.0,29.26,WSW,258,12.5,14.3,31,0.00,,,-99.99,wx200d/1.3,2013-03-22 03:10:00,
2013-03-21 23:15:00,28.2,32.0,29.26,West,268,9.6,11.6,31,0.00,,,-99.99,wx200d/1.3,2013-03-22 03:15:00,
2013-03-21 23:20:00,28.2,32.0,29.26,West,273,9.2,11.6,32,0.00,,,-99.99,wx200d/1.3,2013-03-22 03:20:00,
2013-03-21 23:25:00,28.0,32.0,29.26,West,264,8.3,11.2,32,0.00,,,-99.99,wx200d/1.3,2013-03-22 03:25:00,
2013-03-21 23:30:00,28.0,32.0,29.26,West,277,7.8,11.0,32,0.00,,,-99.99,wx200d/1.3,2013-03-22 03:30:00,
2013-03-21 23:35:00,27.9,32.0,29.26,WSW,251,7.4,10.1,32,0.00,,,-99.99,wx200d/1.3,2013-03-22 03:35:00,
2013-03-21 23:40:00,27.9,32.0,29.26,WSW,254,5.8,8.3,33,0.00,,,-99.99,wx200d/1.3,2013-03-22 03:40:00,
2013-03-21 23:45:00,27.7,32.0,29.26,WSW,253,5.4,7.4,33,0.00,,,-99.99,wx200d/1.3,2013-03-22 03:45:00,
2013-03-21 23:50:00,27.3,32.0,29.26,WSW,247,5.8,7.4,34,0.00,,,-99.99,wx200d/1.3,2013-03-22 03:50:00,
2013-03-21 23:55:00,27.1,32.0,29.26,WSW,253,6.3,7.4,35,0.00,,,-99.99,wx200d/1.3,2013-03-22 03:55:00,